Terminal Aerodrome Forecast
Issued by NWS St Louis, MO

Home | Current Version | Previous Version | Text Only | Print | Product List | Glossary On
Versions: 1 2 3 4 5 6 7 8 9 10 11 12 13 14 15 16 17 18 19 20 21 22 23 24 25 26 27 28 29
000
FTUS43 KLSX 250800 AAA
TAFSTL
TAF AMD
KSTL 250844Z 2509/2612 14004KT P6SM BKN200
     FM251500 17010KT P6SM FEW100 BKN250=

USA.gov is the U.S. government's official web portal to all federal, state and local government web resources and services.